Temp
11 11 11 11 11 11 11 11 11 11 11 11 11 12 12 12 12 12 12 12 12 12 12 12 12 11 13 13 16 16 16 17 17 18 18 18 18 18 19 18 19 19 19 19 19 18 19
10 10 10 10 10 10 10 10 10 10 10 9 9 10 10 10 11 12 11 11 11 11 11 9 11 10 11 15 16 16 16 16 17 17 17 18 18 18 18 18 18 18 18 18 18 20 19
10 10 10 10 10 9 9 9 9 9 9 9 9 9 9 10 10 11 11 11 11 10 10 8 9 9 9 14 16 15 15 16 16 16 16 17 16 18 18 18 17 18 18 18 19 19 20
9 9 10 9 9 9 9 9 8 8 8 8 8 8 9 9 10 10 10 10 10 10 9 9 9 9 11 15 15 16 16 16 16 15 16 16 16 17 18 17 17 18 17 19 19 19 18
9 9 9 9 9 8 8 8 8 8 8 8 8 8 8 9 9 9 9 9 9 9 9 8 8 8 12 15 15 16 15 15 14 13 15 16 17 16 17 16 16 16 18 16 18 18 18
9 9 9 9 8 8 8 8 8 8 8 8 8 8 8 9 9 8 8 8 8 8 8 8 8 10 14 15 15 15 15 15 16 15 16 16 15 16 15 16 19 17 16 16 16 18 18
9 9 8 8 8 8 8 8 8 8 8 8 8 8 8 8 8 8 8 9 9 9 7 11 11 11 12 13 14 15 15 15 16 16 16 15 16 16 17 16 16 16 16 16 16 17 16
9 9 8 8 8 8 8 8 7 7 7 7 7 7 8 8 7 7 8 7 8 7 9 9 9 9 10 11 13 14 15 16 16 16 15 15 15 15 15 15 15 16 15 16 16 16 17
8 8 8 8 8 8 8 8 8 8 7 7 7 7 7 7 7 7 7 8 8 8 8 10 9 9 10 11 11 12 15 15 15 15 15 16 17 15 15 15 15 15 15 15 16 16 16
8 8 8 8 8 8 8 8 8 8 8 7 7 7 7 7 7 7 7 8 8 8 9 12 11 12 11 11 12 12 13 15 15 16 14 15 16 15 15 16 15 14 16 16 15 15 15
8 8 8 8 8 8 8 8 7 8 8 7 7 7 7 7 6 6 7 8 8 8 13 13 12 12 12 12 14 14 13 15 14 14 15 16 15 15 15 16 16 16 16 16 15 15 14
8 7 8 8 8 8 8 8 7 7 7 7 7 7 7 7 7 7 8 8 8 9 12 14 12 12 12 13 14 14 14 15 15 14 14 15 15 15 16 15 15 16 16 15 13 14 14
8 7 7 8 8 8 8 8 8 7 7 7 7 6 6 7 7 8 9 8 9 10 14 14 14 13 13 14 15 14 14 14 14 14 14 14 15 15 16 16 15 15 15 14 14 13 15
7 7 8 8 7 7 8 8 7 7 7 7 7 6 6 6 7 7 8 9 7 12 12 13 14 14 14 15 15 15 14 14 14 14 13 15 15 15 14 16 16 14 15 15 14 14 15
6 7 7 7 7 7 7 7 7 7 7 7 6 5 6 6 7 7 8 7 10 11 12 13 14 15 15 15 15 15 14 14 15 15 16 14 14 15 14 15 16 14 14 15 14 12 13
5 6 6 6 7 7 7 7 7 7 7 6 5 5 5 6 6 7 8 9 9 10 12 12 14 14 13 13 14 14 14 14 15 14 14 15 15 15 15 15 14 15 15 14 13 13 13
5 5 6 6 6 7 7 7 7 7 7 6 5 4 6 6 6 6 7 8 9 10 11 11 12 12 12 13 13 13 14 14 14 14 14 14 13 14 14 14 15 13 14 13 14 12 13
4 5 5 5 5 6 6 7 7 6 6 5 3 4 4 5 4 4 7 8 9 10 11 11 11 11 11 12 12 13 13 14 13 13 14 14 13 13 14 14 13 13 14 14 14 13 12
4 4 5 5 5 5 6 6 6 6 5 5 3 3 4 5 5 4 7 8 8 8 9 10 10 11 11 11 11 11 12 13 13 13 12 11 12 13 13 13 12 11 13 14 13 13 14
3 3 4 5 4 5 5 5 6 5 5 5 2 3 3 4 4 6 6 7 7 8 9 8 9 9 10 10 11 11 11 12 11 12 12 11 11 12 12 14 13 12 12 13 13 12 14
3 3 3 4 4 4 5 5 5 4 5 5 3 4 4 4 4 5 6 7 7 7 8 8 8 9 9 10 10 10 10 10 11 12 11 11 11 11 12 12 12 13 13 13 12 13 13
3 3 3 3 4 3 3 4 5 5 4 4 2 4 4 4 6 5 5 6 7 7 8 8 8 9 8 8 10 10 10 10 10 11 10 9 10 10 11 12 12 12 12 12 13 13 13
2 2 2 2 2 3 3 4 4 4 4 3 2 3 5 4 4 5 6 6 7 7 8 8 8 8 8 9 9 10 10 10 10 10 10 9 9 9 10 10 9 10 11 12 12 13 13
2 2 2 2 2 2 3 3 3 4 4 1 3 3 4 4 5 5 6 6 6 6 6 8 8 7 9 9 9 8 8 9 9 9 10 9 8 9 10 8 10 13 9 9 10 11 10
2 2 2 2 3 3 3 3 3 3 3 3 3 4 3 4 5 5 5 6 6 6 5 6 7 8 8 9 8 7 8 7 9 8 9 10 10 9 9 10 11 11 8 7 9 11 9
1 2 2 2 2 2 3 3 3 3 2 1 2 4 3 3 4 6 5 5 5 5 5 6 7 8 7 7 7 6 8 9 9 9 9 9 10 9 8 9 9 9 7 7 8 9 6
2 2 2 2 2 2 3 3 3 3 2 1 1 2 2 2 3 5 4 4 5 5 5 6 5 6 7 6 6 7 8 10 9 10 9 8 8 8 9 8 9 9 6 7 9 10 5
1 1 2 2 2 2 3 3 3 2 2 2 1 2 2 2 3 4 5 4 4 5 5 6 6 5 5 6 7 8 7 8 9 9 9 10 8 8 8 8 8 6 6 8 7 3 4
1 1 1 1 2 2 2 3 2 2 2 2 1 2 2 2 2 4 5 4 4 4 3 4 5 5 5 6 6 6 6 6 7 8 7 8 9 8 9 9 4 6 4 3 3 4 2
Height
809 810 812 814 816 818 820 821 822 824 824 825 827 828 828 828 827 827 825 823 823 822 818 818 815 813 812 812 802 797 797 798 797 797 798 800 800 801 805 805 804 805 806 804 803 804 802
806 808 810 813 814 816 817 820 821 822 823 824 825 827 828 827 824 825 823 823 821 818 816 817 815 812 816 813 796 797 797 797 797 797 799 801 801 802 805 805 805 805 805 803 801 797 800
805 807 807 811 812 815 815 817 820 821 822 824 824 824 828 827 823 823 822 820 820 816 814 815 814 812 816 801 795 796 795 797 796 797 801 803 802 802 805 807 806 804 805 802 796 796 797
802 806 805 808 810 813 815 816 817 819 822 824 824 824 826 826 822 820 823 820 818 815 814 813 814 815 807 794 793 794 793 792 793 796 800 803 803 805 804 805 807 807 810 805 798 797 799
800 803 803 807 809 811 812 815 815 815 821 823 824 822 823 825 822 820 822 821 817 812 813 815 815 816 801 793 794 791 791 792 793 796 799 802 803 806 807 811 812 815 807 813 805 801 801
795 798 802 804 808 810 811 813 814 814 817 820 821 822 823 821 821 820 821 820 816 812 815 815 816 814 794 795 792 790 791 793 794 796 800 803 805 810 814 811 805 809 813 815 814 803 801
794 794 799 802 803 806 810 812 813 813 816 821 816 821 817 821 822 820 820 818 818 815 816 804 803 799 794 796 792 789 790 792 792 798 802 804 806 806 800 807 809 810 812 814 810 805 809
788 792 795 798 798 804 806 809 811 812 818 817 817 817 818 819 820 819 820 818 820 820 814 799 800 799 796 799 796 791 791 793 794 797 802 806 806 803 806 809 811 810 811 809 807 802 801
787 787 791 792 795 799 804 806 807 811 815 815 815 815 818 819 818 820 820 817 819 819 817 796 795 799 794 799 794 790 791 791 793 799 800 800 797 799 804 807 809 811 811 808 807 801 798
781 784 787 787 792 794 799 803 807 807 810 813 814 814 814 817 822 819 818 818 818 816 817 793 795 793 793 794 792 787 787 790 793 794 800 800 793 798 802 801 804 811 801 803 804 804 803
776 780 780 783 787 791 795 798 805 806 809 810 812 812 814 814 819 820 820 816 818 815 809 790 791 792 788 792 790 787 787 788 791 792 796 793 795 798 797 795 798 801 799 801 801 802 805
771 773 775 779 782 787 791 796 799 803 806 808 810 812 812 813 817 818 816 818 819 824 811 783 785 789 790 786 785 788 788 787 789 792 793 794 793 792 790 791 794 795 798 802 808 804 801
763 767 771 775 778 783 786 790 795 798 802 805 806 811 813 811 816 816 814 818 824 818 787 786 783 785 784 784 783 787 790 791 790 797 797 793 789 787 788 793 795 796 802 805 803 806 793
758 761 765 769 772 778 781 787 790 794 799 802 806 807 810 811 814 815 815 818 834 793 793 787 783 784 782 781 779 783 790 788 789 788 798 792 790 786 786 785 788 797 796 798 801 800 790
751 755 759 763 767 771 777 782 788 791 796 800 804 806 808 810 813 817 817 822 797 797 789 787 782 783 782 779 780 783 787 785 780 781 786 793 791 781 783 782 783 795 795 791 792 804 799
746 750 753 758 762 766 771 777 783 788 793 797 800 805 808 809 812 817 816 803 797 795 788 786 784 783 787 787 785 785 786 782 780 783 784 784 787 781 779 780 786 785 786 793 800 799 794
740 745 748 752 757 761 767 771 778 784 789 793 798 805 802 807 813 818 809 802 797 793 790 790 790 788 788 788 788 787 784 781 780 783 785 788 792 785 784 782 779 789 787 790 789 796 789
734 738 743 746 751 756 760 767 772 779 785 789 794 801 801 806 817 816 801 800 795 793 790 791 792 791 791 791 791 788 785 780 781 783 785 783 788 787 782 781 783 781 776 777 783 783 789
729 731 737 741 746 749 755 761 766 773 778 784 792 799 802 802 806 807 798 797 796 795 794 793 793 791 790 793 797 792 787 783 781 785 787 791 787 781 778 783 782 790 778 776 778 776 770
723 728 731 735 739 744 749 754 759 767 773 780 790 794 798 795 795 794 797 796 797 796 795 797 797 795 792 791 792 790 787 785 786 785 787 789 788 784 779 770 774 778 775 772 773 774 764
720 723 726 728 734 739 744 748 752 758 764 772 778 780 780 784 789 791 793 790 789 796 795 794 794 795 796 792 791 790 791 790 786 784 786 788 782 782 776 772 772 768 765 765 768 761 764
715 717 720 724 726 733 738 741 745 752 758 762 771 773 778 780 781 790 790 782 787 790 793 791 790 790 793 792 789 786 791 790 787 785 787 793 784 784 773 768 768 766 761 759 758 756 753
708 711 714 718 721 725 732 734 738 742 750 748 758 764 765 774 779 784 777 780 782 789 787 788 790 792 790 789 788 787 787 786 783 782 785 788 787 784 771 772 778 773 748 752 747 746 746
702 706 709 712 714 720 725 727 732 736 737 745 748 755 763 770 772 772 774 779 783 786 786 784 787 791 786 786 786 786 785 782 780 775 779 783 788 782 771 784 767 736 754 753 750 744 749
697 700 703 706 709 714 718 722 727 731 733 740 744 749 757 765 765 769 772 774 779 783 786 784 782 783 784 785 788 786 777 780 764 763 763 766 771 774 771 764 749 739 755 759 753 740 746
691 694 696 700 704 708 712 716 722 726 731 735 742 747 752 762 763 764 769 771 776 781 781 776 776 775 780 783 787 783 774 760 755 753 753 761 760 770 769 762 752 743 753 754 755 747 755
684 687 691 695 698 702 706 711 717 722 728 733 738 745 753 760 762 761 765 769 771 775 776 774 774 774 772 773 775 773 766 755 754 746 751 756 760 755 751 754 742 743 754 756 750 741 758
678 682 686 689 693 696 702 708 714 719 726 730 736 744 751 757 759 759 761 765 769 771 773 771 770 767 772 765 761 758 757 750 747 744 743 741 746 747 753 756 746 748 756 746 747 760 760
671 674 679 684 689 693 698 705 712 717 724 729 737 744 751 757 758 757 759 761 764 766 772 770 767 765 758 757 756 758 755 758 746 739 747 741 733 738 737 732 748 745 751 755 756 756 764
Wind_Speed
10 11 11 11 10 10 9 9 9 10 11 11 11 12 12 11 11 11 11 11 11 11 11 12 11 13 8 4 8 4 5 6 6 3 3 1 2 2 2 1 2 2 2 4 5 8 6
8 8 8 9 8 9 8 8 7 7 6 6 5 6 8 9 8 10 10 10 9 9 10 8 8 8 2 4 3 4 4 1 5 4 3 2 2 1 2 1 2 0 3 8 4 12 5
11 13 11 10 9 9 8 7 6 5 4 5 4 4 7 8 8 9 10 10 9 8 7 6 6 5 1 12 4 6 6 6 3 3 2 3 5 2 1 1 2 4 6 7 4 1 2
12 13 11 11 9 9 7 6 5 5 4 4 4 4 7 9 8 10 11 9 7 7 6 6 5 3 7 6 9 10 9 9 8 10 8 1 4 2 0 1 3 2 1 3 1 4 3
16 16 13 12 12 12 9 8 6 6 7 4 6 5 7 9 9 9 9 6 5 2 4 4 3 1 8 5 4 5 1 3 6 6 9 1 2 2 0 2 2 2 3 2 5 5 6
18 17 16 16 13 12 11 10 8 6 6 7 7 7 8 8 8 8 7 5 4 1 3 3 1 1 5 2 2 3 3 4 3 9 4 3 3 2 2 3 5 1 2 2 3 4 12
21 19 19 17 15 12 10 11 8 6 7 10 6 6 5 7 7 7 6 4 4 1 3 6 2 3 3 9 5 3 2 5 5 2 4 3 4 10 13 9 3 3 3 8 8 9 5
19 20 19 17 14 13 14 11 10 9 11 10 5 4 4 4 4 5 4 3 4 2 8 12 13 9 5 3 5 2 3 4 4 5 6 3 7 12 3 6 6 9 9 11 7 6 7
23 22 20 17 16 16 17 14 11 12 11 8 6 3 4 4 3 3 2 0 6 7 3 7 4 4 3 9 7 6 5 4 4 6 8 7 2 5 8 5 8 6 8 9 8 7 6
25 24 23 21 21 20 19 18 15 14 14 11 7 4 2 3 2 2 1 6 6 4 3 4 3 3 4 2 3 6 5 4 5 12 7 6 5 6 6 6 8 6 11 11 8 7 4
27 26 25 23 21 17 16 20 17 15 13 11 10 5 2 2 2 1 3 5 6 1 3 2 3 6 5 2 1 1 4 1 7 6 6 5 5 5 8 10 8 6 5 6 7 8 5
28 26 27 25 23 22 20 17 19 18 13 10 9 7 5 3 3 2 2 2 1 4 7 1 4 4 3 2 0 3 2 1 2 4 1 3 1 3 6 5 8 2 1 2 2 3 6
29 29 28 27 27 26 23 20 20 20 14 12 11 10 8 5 2 2 2 2 3 3 4 1 0 3 3 3 2 3 4 4 4 4 4 2 7 4 4 5 3 5 3 3 3 3 5
25 26 26 27 27 26 24 23 22 21 17 14 12 11 11 8 5 5 3 2 3 3 4 2 1 3 2 4 2 4 5 5 4 2 3 3 3 5 4 8 4 6 7 4 4 3 3
20 25 26 27 29 28 26 25 23 21 17 15 14 10 7 11 9 3 1 2 7 5 2 0 1 1 1 1 2 2 4 4 6 10 5 4 5 1 4 3 5 4 6 2 4 1 5
18 20 21 24 25 25 28 28 25 23 20 20 15 8 6 13 8 4 3 7 5 4 1 2 5 1 2 2 2 2 2 2 1 2 4 3 8 5 2 4 2 6 6 3 1 4 6
22 20 23 22 26 24 27 28 25 25 23 23 12 3 7 17 12 1 7 7 3 3 2 2 0 1 1 1 1 2 2 1 3 3 3 1 2 2 1 6 9 4 4 2 2 3 4
22 25 22 22 24 29 31 31 27 27 25 26 8 3 8 26 3 2 12 5 2 2 3 5 2 2 3 3 2 2 4 1 3 3 8 4 4 5 8 0 4 3 5 8 7 7 5
19 21 23 23 26 27 30 30 30 30 29 20 5 3 13 16 7 6 7 7 5 1 3 4 4 5 4 5 2 5 6 3 6 2 1 2 2 5 5 2 2 6 11 11 6 5 17
18 21 22 25 19 24 27 28 30 29 34 22 4 4 3 4 2 13 7 12 8 4 8 1 1 3 3 3 4 3 2 2 1 2 6 4 3 8 12 11 2 6 8 11 11 5 12
20 21 21 25 27 22 29 32 33 31 39 24 4 4 3 6 13 8 10 5 17 10 7 8 5 12 4 4 3 9 4 3 3 4 2 5 11 10 13 15 13 14 13 12 15 17 11
22 21 22 22 27 29 30 32 35 37 39 17 5 4 3 3 10 15 10 10 17 5 8 7 13 5 13 16 17 9 10 10 9 3 4 2 4 3 13 11 13 17 16 14 16 16 19
22 22 23 24 24 24 28 30 33 37 43 5 7 5 5 7 7 11 16 18 11 10 8 11 9 7 12 10 10 11 11 11 11 11 7 5 4 4 14 4 2 8 21 19 18 18 16
21 22 23 23 20 26 29 28 29 35 38 10 11 7 3 4 8 11 10 13 16 14 12 7 7 13 11 2 3 3 7 11 13 15 12 9 6 6 9 3 10 6 1 3 12 13 9
22 22 22 21 23 25 27 32 32 33 27 26 17 5 3 3 8 10 7 7 4 4 7 12 13 15 7 6 4 6 6 5 13 19 18 18 12 7 6 8 11 11 5 6 6 5 9
23 22 21 21 22 25 27 31 31 32 32 20 18 12 4 5 6 6 7 7 5 4 6 7 9 13 9 3 6 8 7 4 3 3 7 14 15 10 5 5 8 2 3 4 3 7 6
21 22 22 22 22 23 25 28 31 29 28 31 11 15 6 3 2 7 5 6 4 4 4 4 3 2 11 7 8 8 10 4 9 9 4 6 5 16 13 7 7 3 8 4 4 3 8
21 20 21 23 23 22 23 24 28 32 29 22 10 27 12 2 3 3 4 4 1 5 8 2 1 5 4 9 6 6 6 8 5 3 6 10 6 5 6 7 11 10 6 7 3 4 7
24 24 26 24 25 23 23 25 26 25 26 25 5 22 23 2 1 7 23 19 12 10 0 2 4 2 1 3 3 2 4 2 6 7 4 6 6 5 9 5 1 8 2 4 4 7 5
Wind_Direction
222 212 219 225 232 240 247 248 253 252 254 258 265 269 272 276 284 290 297 303 312 312 313 308 317 330 353 358 255 232 252 277 315 7 70 60 68 103 175 17 313 209 313 322 306 294 268
228 215 218 219 221 230 241 247 251 256 254 247 251 274 282 283 280 289 298 303 308 316 312 313 324 339 342 296 240 261 261 278 47 68 71 49 100 98 102 142 260 130 289 299 294 288 281
218 217 215 227 226 240 233 234 244 251 248 244 245 273 299 299 304 300 297 298 304 307 311 306 337 353 205 248 229 253 259 257 223 63 74 64 48 100 165 234 318 326 315 319 285 11 56
220 226 223 228 226 215 228 236 240 225 229 257 277 297 306 307 318 319 310 305 292 294 310 343 344 324 248 275 294 291 274 262 257 227 209 260 346 75 208 90 8 307 76 300 60 330 38
228 230 227 225 216 219 223 237 233 216 231 253 274 299 312 316 325 321 317 315 317 284 258 286 306 321 268 307 301 359 140 98 103 150 184 69 85 75 45 74 342 354 264 206 319 13 25
221 220 218 220 227 232 232 234 237 221 213 221 251 293 309 313 318 320 323 321 307 276 251 264 206 264 281 300 318 341 137 126 101 124 113 129 84 136 104 162 263 228 245 226 258 309 326
227 224 221 221 226 225 241 242 225 200 213 228 234 286 308 312 314 313 325 318 353 311 244 218 201 272 287 302 304 86 143 149 122 97 160 169 190 206 222 202 127 109 273 282 274 273 286
220 225 226 223 224 231 229 222 213 214 224 218 239 291 299 310 317 319 342 83 115 238 299 241 251 268 270 350 341 239 187 180 157 177 132 128 240 227 174 183 226 254 271 273 290 268 288
233 224 220 218 220 218 222 213 204 206 212 218 240 239 301 307 296 296 276 98 208 3 263 294 190 239 219 181 217 246 198 159 162 175 186 195 211 146 183 188 220 240 242 256 265 306 273
231 226 228 226 226 223 221 218 209 201 203 210 217 227 250 302 294 319 259 319 250 215 7 268 234 258 152 161 262 214 218 168 192 218 164 233 235 158 162 220 193 246 231 246 267 308 294
240 231 227 226 226 224 219 220 216 204 198 202 207 202 222 228 109 242 7 96 130 107 336 135 145 155 137 202 296 47 188 175 175 159 164 220 174 176 205 232 184 241 188 257 276 275 300
239 236 232 227 225 226 227 222 214 206 206 203 204 205 196 212 215 229 321 100 302 48 249 111 126 167 130 214 293 153 140 304 143 134 46 253 268 215 209 210 190 105 200 28 32 261 259
235 235 232 228 227 228 225 224 214 207 211 209 200 204 202 195 191 95 160 139 61 173 346 22 246 159 180 178 183 172 156 175 157 141 216 291 239 251 195 233 165 185 153 284 258 204 266
233 233 229 228 223 225 223 224 213 209 211 201 196 189 197 210 215 318 125 106 165 213 233 323 317 142 173 165 216 170 151 185 210 97 144 201 275 185 164 208 174 178 187 199 252 220 282
235 233 229 226 224 224 220 218 211 207 202 193 182 174 193 224 224 274 185 174 213 203 195 234 272 126 295 231 205 178 217 208 200 181 199 188 252 247 187 158 182 159 198 198 261 189 269
237 234 227 227 226 228 221 215 211 206 196 186 151 158 201 223 185 149 218 239 223 216 339 44 188 83 204 351 139 143 233 200 59 179 7 285 271 220 151 123 77 206 149 160 104 248 246
233 244 235 233 232 230 217 207 209 206 191 184 142 142 199 199 151 132 208 223 233 246 52 56 203 208 133 157 144 202 215 336 81 55 98 35 276 294 102 207 199 165 205 185 222 193 263
228 233 238 232 236 226 216 208 209 215 196 177 126 175 175 154 147 204 222 189 243 234 33 228 240 233 202 161 222 261 239 236 123 114 324 216 192 247 250 318 350 311 245 210 232 227 223
238 232 229 233 230 230 217 212 205 209 191 164 144 119 182 177 193 214 217 242 240 243 200 208 224 215 195 202 268 222 240 262 294 17 5 22 246 263 260 215 278 253 259 233 245 268 249
239 233 225 226 231 230 227 220 211 212 193 168 137 159 188 200 156 208 196 221 229 205 235 278 268 2 222 226 218 271 211 326 7 288 201 180 219 249 260 278 288 243 230 223 222 241 252
240 231 233 230 230 233 234 224 217 210 188 174 162 198 206 180 207 191 185 217 221 229 221 202 243 235 232 237 200 235 240 293 290 289 222 192 260 243 253 261 260 259 251 227 219 232 223
239 232 228 229 224 228 234 224 211 206 192 184 152 165 166 141 181 196 210 217 234 209 222 211 225 217 225 237 234 255 291 276 263 300 182 141 274 271 268 260 247 251 247 234 231 240 245
239 235 229 228 223 223 230 222 210 196 187 143 156 147 133 160 160 180 214 224 243 224 251 247 257 257 255 247 242 249 245 260 250 254 249 228 242 254 274 305 347 257 242 222 234 237 247
238 234 229 225 222 225 220 219 213 211 200 147 165 134 126 170 172 197 189 206 232 237 252 266 271 254 249 261 289 260 240 247 241 244 224 228 222 245 269 224 244 276 93 254 240 253 212
233 232 231 228 225 227 219 218 219 221 207 176 164 135 135 136 191 212 211 226 212 198 242 245 253 254 231 255 283 293 266 264 241 235 226 218 220 238 244 231 288 269 204 193 195 264 216
234 229 226 227 226 225 221 214 220 215 211 174 164 146 110 127 222 175 185 205 218 226 266 253 250 241 202 206 226 234 243 250 247 260 228 216 215 212 202 222 245 297 148 133 134 269 161
237 233 229 225 223 220 219 214 213 214 207 185 185 179 109 142 240 158 187 200 167 181 252 280 272 316 200 192 204 226 241 240 252 250 196 202 198 219 224 236 271 195 153 159 160 278 156
235 233 231 226 222 220 216 213 206 206 201 176 167 188 174 155 195 151 176 175 143 201 230 242 330 193 212 199 192 207 230 211 229 215 199 206 207 199 210 221 244 152 123 197 137 132 147
233 233 229 224 218 213 212 206 199 198 193 185 131 178 195 187 263 229 242 239 226 215 44 286 294 288 289 219 205 185 209 205 199 240 181 219 201 191 202 209 126 160 70 111 141 144 161